Regional Weather Roundup
Issued by NWS Binghamton, NY

Home | Current Version | Previous Version | Text Only | Print | Product List | Glossary On
Versions: 1 2 3 4 5 6 7 8 9 10 11 12 13 14 15 16 17 18 19 20 21 22 23 24 25 26 27 28 29 30 31 32 33 34 35 36 37 38 39 40 41 42 43 44 45 46 47 48 49 50
000
ASUS41 KBGM 021310
RWRBGM
RWRBGM
BINGHAMTON REGIONAL WEATHER ROUNDUP
NATIONAL WEATHER SERVICE BINGHAMTON NY
900 AM EDT THU JUL 02 2015

Note: "fair" indicates few or no clouds below 12,000 feet with no
significant weather and/or obstructions to visibility.

* = Station(s) that does not report precipitation, such as rain,
snow, etc, also no thunder or fog.

!NYZ009-015>018-022>025-036-037-044>046-055>057-062-021400
...CENTRAL NEW YORK...

CITY           SKY/WX    TMP DP  RH WIND       PRES   REMARKS
BINGHAMTON     PTSUNNY   62  56  80 NW6       29.96R
CORTLAND       PTSUNNY   63  57  82 W6        29.97R
DANSVILLE      SUNNY     64  56  75 N6        29.97R
ELMIRA         CLOUDY    63  60  90 CALM      29.95R
ITHACA         PTSUNNY   64  58  81 W9        29.97R
MONTICELLO     PTSUNNY   64  59  82 NW5       29.97R
NORWICH        PTSUNNY   59  59 100 CALM      29.96S
PENN YAN       PTSUNNY   63  56  78 NW3       29.96R
ROME           PTSUNNY   61  56  83 W6        29.95S
SIDNEY         MOSUNNY   63  63 100 CALM      29.95S
SYRACUSE       PTSUNNY   64  56  75 W6        29.94R
$$

!PAZ038>040-043-044-047-048-072-021400
...NORTHEAST PENNSYLVANIA...

CITY           SKY/WX    TMP DP  RH WIND       PRES   REMARKS
SCRANTON       MOSUNNY   67  58  72 CALM      29.95R
TOWANDA*       SUNNY     64  57  77 MISG      29.96R
$$
&&
KEY
WCI = WIND CHILL INDEX
VSB = VISIBILITY
HX  = HEAT INDEX
$$



USA.gov is the U.S. government's official web portal to all federal, state and local government web resources and services.